This is the latest recevied weather packets stored in our database for station/object KD5BIG-13. If no packets are shown the sender has not sent any weather packets the latest 10 day(s).
| Time | Temp. | Humidity | Pressure | Rain* | Wind** | Luminosity | Snow |
|---|---|---|---|---|---|---|---|
| 1778097068 | 26.11° C | 88% | 1014.5 hPa | - | - | 58 W/m² | - |
| 1778096765 | 26.11° C | 87% | 1014.8 hPa | - | - | 53 W/m² | - |
| 1778096461 | 26.11° C | 86% | 1015 hPa | - | - | 82 W/m² | - |
| 1778096159 | 26.67° C | 86% | 1015.1 hPa | - | - | 68 W/m² | - |
| 1778095856 | 26.67° C | 85% | 1015.1 hPa | - | - | 98 W/m² | - |
| 1778095553 | 26.67° C | 85% | 1015.3 hPa | - | - | 119 W/m² | - |
| 1778095249 | 26.67° C | 86% | 1015.2 hPa | - | - | 141 W/m² | - |
| 1778094946 | 26.67° C | 85% | 1015.4 hPa | - | - | 140 W/m² | - |
| 1778094641 | 26.67° C | 85% | 1015.5 hPa | - | - | 78 W/m² | - |
| 1778094339 | 27.22° C | 84% | 1015.5 hPa | - | - | 193 W/m² | - |
| 1778094036 | 26.67° C | 84% | 1015.7 hPa | - | - | 283 W/m² | - |
| 1778093733 | 26.67° C | 85% | 1016 hPa | - | - | 271 W/m² | - |
| 1778093430 | 26.67° C | 84% | 1015.9 hPa | - | - | 147 W/m² | - |
| 1778093127 | 26.67° C | 83% | 1016 hPa | - | - | 135 W/m² | - |
| 1778092824 | 26.67° C | 83% | 1015.9 hPa | - | - | 199 W/m² | - |
| 1778092520 | 26.67° C | 85% | 1016 hPa | - | - | 324 W/m² | - |
| 1778092217 | 26.67° C | 84% | 1016.1 hPa | - | - | 102 W/m² | - |
| 1778091915 | 26.67° C | 84% | 1016.3 hPa | - | - | 273 W/m² | - |
| 1778091611 | 27.22° C | 82% | 1016.4 hPa | - | - | 242 W/m² | - |
| 1778091309 | 27.22° C | 84% | 1016.2 hPa | - | - | 329 W/m² | - |
| 1778091006 | 26.67° C | 84% | 1016.5 hPa | - | - | 309 W/m² | - |
| 1778090702 | 26.67° C | 84% | 1016.3 hPa | - | - | 361 W/m² | - |
| 1778090399 | 26.67° C | 84% | 1016.3 hPa | - | - | 353 W/m² | - |
| 1778090095 | 26.67° C | 85% | 1016.4 hPa | - | - | 226 W/m² | - |
| 1778089792 | 26.67° C | 84% | 1016.6 hPa | - | - | 154 W/m² | - |
* Rain since midnight (hover to see other rain measurements)
** Current wind speed in m/s (hover to see current wind gust speed)